Year,Month,Day,Hour,Minute,Value (Times are PST for temperature in C)
2007,08,13,04,27,13.00
2007,08,13,04,28,13.00
2007,08,13,04,29,13.10
2007,08,13,04,30,13.10
2007,08,13,04,31,13.10
2007,08,13,04,32,13.10
2007,08,13,04,33,13.00
2007,08,13,04,34,13.00
2007,08,13,04,35,13.00
2007,08,13,04,36,13.00
2007,08,13,04,37,13.00
2007,08,13,04,38,13.00
2007,08,13,04,39,13.00
2007,08,13,04,40,12.90
2007,08,13,04,41,12.90
2007,08,13,04,42,12.90
2007,08,13,04,43,12.90
2007,08,13,04,44,12.90
2007,08,13,04,45,12.90
2007,08,13,04,46,12.90
2007,08,13,04,47,12.90
2007,08,13,04,48,12.90
2007,08,13,04,49,12.90
2007,08,13,04,50,12.90
2007,08,13,04,51,12.90
2007,08,13,04,52,12.90
2007,08,13,04,53,12.90
2007,08,13,04,54,12.90
2007,08,13,04,55,12.90
2007,08,13,04,56,12.90
2007,08,13,04,57,12.90
2007,08,13,04,58,12.90
2007,08,13,04,59,12.90
2007,08,13,05,00,12.90
2007,08,13,05,01,12.90
2007,08,13,05,02,12.90
2007,08,13,05,03,12.90
2007,08,13,05,04,12.90
2007,08,13,05,05,12.90
2007,08,13,05,06,12.80
2007,08,13,05,07,12.90
2007,08,13,05,08,12.80
2007,08,13,05,09,12.80
2007,08,13,05,10,12.80
2007,08,13,05,11,12.80
2007,08,13,05,12,12.80
2007,08,13,05,13,12.80
2007,08,13,05,14,12.80
2007,08,13,05,15,12.80
2007,08,13,05,16,12.80
2007,08,13,05,17,12.80
2007,08,13,05,18,12.80
2007,08,13,05,19,12.80
2007,08,13,05,20,12.80
2007,08,13,05,21,12.90
2007,08,13,05,22,12.90
2007,08,13,05,23,12.90
2007,08,13,05,24,12.90
2007,08,13,05,25,12.90
2007,08,13,05,26,12.90
2007,08,13,05,27,12.90
2007,08,13,05,28,12.90
2007,08,13,05,29,12.90
2007,08,13,05,30,12.90
2007,08,13,05,31,12.90
2007,08,13,05,32,12.90
2007,08,13,05,33,12.90
2007,08,13,05,34,12.90
2007,08,13,05,35,12.90
2007,08,13,05,36,12.80
2007,08,13,05,37,12.80
2007,08,13,05,38,12.80
2007,08,13,05,39,12.80
2007,08,13,05,40,12.80
2007,08,13,05,41,12.80
2007,08,13,05,42,12.80
2007,08,13,05,43,12.80
2007,08,13,05,44,12.80
2007,08,13,05,45,12.80
2007,08,13,05,46,12.80
2007,08,13,05,47,12.80
2007,08,13,05,48,12.80
2007,08,13,05,49,12.70
2007,08,13,05,50,12.70
2007,08,13,05,51,12.70
2007,08,13,05,52,12.70
2007,08,13,05,53,12.60
2007,08,13,05,54,12.60
2007,08,13,05,55,12.60
2007,08,13,05,56,12.50
2007,08,13,05,57,12.50
2007,08,13,05,58,12.50
2007,08,13,05,59,12.40
2007,08,13,06,00,12.40
2007,08,13,06,01,12.40
2007,08,13,06,02,12.40
2007,08,13,06,03,12.40
2007,08,13,06,04,12.40
2007,08,13,06,05,12.40
2007,08,13,06,06,12.30
2007,08,13,06,07,12.30
2007,08,13,06,08,12.30
2007,08,13,06,09,12.30
2007,08,13,06,10,12.20
2007,08,13,06,11,12.20
2007,08,13,06,12,12.20
2007,08,13,06,13,12.20
2007,08,13,06,14,12.20
2007,08,13,06,15,12.20
2007,08,13,06,16,12.20
2007,08,13,06,17,12.10
2007,08,13,06,18,12.10
2007,08,13,06,19,12.10
2007,08,13,06,20,12.10
2007,08,13,06,21,12.10
2007,08,13,06,22,12.10
2007,08,13,06,23,12.10
2007,08,13,06,24,12.10
2007,08,13,06,25,12.10
2007,08,13,06,26,12.10
2007,08,13,06,27,12.10
2007,08,13,06,28,12.10
2007,08,13,06,29,12.10
2007,08,13,06,30,12.10
2007,08,13,06,31,12.10
2007,08,13,06,32,12.10
2007,08,13,06,33,12.10
2007,08,13,06,34,12.20
2007,08,13,06,35,12.20
2007,08,13,06,36,12.20
2007,08,13,06,37,12.20
2007,08,13,06,38,12.20
2007,08,13,06,39,12.20
2007,08,13,06,40,12.20
2007,08,13,06,41,12.20
2007,08,13,06,42,12.30
2007,08,13,06,43,12.30
2007,08,13,06,44,12.30
2007,08,13,06,45,12.30
2007,08,13,06,46,12.30
2007,08,13,06,47,12.30
2007,08,13,06,48,12.30
2007,08,13,06,49,12.40
2007,08,13,06,50,12.40
2007,08,13,06,51,12.40
2007,08,13,06,52,12.40
2007,08,13,06,53,12.40
2007,08,13,06,54,12.40
2007,08,13,06,55,12.40
2007,08,13,06,56,12.50
2007,08,13,06,57,12.50
2007,08,13,06,58,12.50
2007,08,13,06,59,12.50
2007,08,13,07,00,12.50
2007,08,13,07,01,12.50
2007,08,13,07,02,12.50
2007,08,13,07,03,12.50
2007,08,13,07,04,12.60
2007,08,13,07,05,12.60
2007,08,13,07,06,12.60
2007,08,13,07,07,12.60
2007,08,13,07,08,12.70
2007,08,13,07,09,12.70
2007,08,13,07,10,12.70
2007,08,13,07,11,12.70
2007,08,13,07,12,12.70
2007,08,13,07,13,12.80
2007,08,13,07,14,12.80
2007,08,13,07,15,12.80
2007,08,13,07,16,12.80
2007,08,13,07,17,12.80
2007,08,13,07,18,12.90
2007,08,13,07,19,12.90
2007,08,13,07,20,12.90
2007,08,13,07,21,12.90
2007,08,13,07,22,12.90
2007,08,13,07,23,12.90
2007,08,13,07,24,13.00
2007,08,13,07,25,13.00
2007,08,13,07,26,13.00
2007,08,13,07,27,13.00
2007,08,13,07,28,13.00
2007,08,13,07,29,13.10
2007,08,13,07,30,13.10
2007,08,13,07,31,13.10
2007,08,13,07,32,13.10
2007,08,13,07,33,13.10
2007,08,13,07,34,13.10
2007,08,13,07,35,13.10
2007,08,13,07,36,13.10
2007,08,13,07,37,13.20
2007,08,13,07,38,13.20
2007,08,13,07,39,13.20
2007,08,13,07,40,13.20
2007,08,13,07,41,13.20
2007,08,13,07,42,13.20
2007,08,13,07,43,13.20
2007,08,13,07,44,13.20
2007,08,13,07,45,13.20
2007,08,13,07,46,13.30
2007,08,13,07,47,13.30
2007,08,13,07,48,13.30
2007,08,13,07,49,13.30
2007,08,13,07,50,13.30
2007,08,13,07,51,13.30
2007,08,13,07,52,13.30
2007,08,13,07,53,13.40
2007,08,13,07,54,13.40
2007,08,13,07,55,13.40
2007,08,13,07,56,13.50
2007,08,13,07,57,13.50
2007,08,13,07,58,13.60
2007,08,13,07,59,13.60
2007,08,13,08,00,13.60
2007,08,13,08,01,13.70
2007,08,13,08,02,13.70
2007,08,13,08,03,13.70
2007,08,13,08,04,13.80
2007,08,13,08,05,13.80
2007,08,13,08,06,13.80
2007,08,13,08,07,13.80
2007,08,13,08,08,13.90
2007,08,13,08,09,13.90
2007,08,13,08,10,14.00
2007,08,13,08,11,14.00
2007,08,13,08,12,14.00
2007,08,13,08,13,14.10
2007,08,13,08,14,14.10
2007,08,13,08,15,14.20
2007,08,13,08,16,14.20
2007,08,13,08,17,14.30
2007,08,13,08,18,14.30
2007,08,13,08,19,14.40
2007,08,13,08,20,14.40
2007,08,13,08,21,14.50
2007,08,13,08,22,14.50
2007,08,13,08,23,14.60
2007,08,13,08,24,14.70
2007,08,13,08,25,14.80
2007,08,13,08,26,14.90
2007,08,13,08,27,15.00
2007,08,13,08,28,15.00
2007,08,13,08,29,15.00
2007,08,13,08,30,15.10
2007,08,13,08,31,15.30
2007,08,13,08,32,15.40
2007,08,13,08,33,15.50
2007,08,13,08,34,15.50
2007,08,13,08,35,15.60
2007,08,13,08,36,15.60
2007,08,13,08,37,15.70
2007,08,13,08,38,15.70
2007,08,13,08,39,15.80
2007,08,13,08,40,15.90
2007,08,13,08,41,15.90
2007,08,13,08,42,15.90
2007,08,13,08,43,16.00
2007,08,13,08,44,16.00
2007,08,13,08,45,16.10
2007,08,13,08,46,16.10
2007,08,13,08,47,16.20
2007,08,13,08,48,16.20
2007,08,13,08,49,16.20
2007,08,13,08,50,16.20
2007,08,13,08,51,16.20
2007,08,13,08,52,16.20
2007,08,13,08,53,16.20
2007,08,13,08,54,16.20
2007,08,13,08,55,16.20
2007,08,13,08,56,16.30
2007,08,13,08,57,16.30
2007,08,13,08,58,16.30
2007,08,13,08,59,16.30
2007,08,13,09,00,16.30
2007,08,13,09,01,16.30
2007,08,13,09,02,16.30
2007,08,13,09,03,16.40
2007,08,13,09,04,16.40
2007,08,13,09,05,16.40
2007,08,13,09,06,16.40
2007,08,13,09,07,16.50
2007,08,13,09,08,16.50
2007,08,13,09,09,16.50
2007,08,13,09,10,16.40
2007,08,13,09,11,16.40
2007,08,13,09,12,16.40
2007,08,13,09,13,16.40
2007,08,13,09,14,16.40
2007,08,13,09,15,16.40
2007,08,13,09,16,16.40
2007,08,13,09,17,16.50
2007,08,13,09,18,16.50
2007,08,13,09,19,16.50
2007,08,13,09,20,16.60
2007,08,13,09,21,16.60
2007,08,13,09,22,16.60
2007,08,13,09,23,16.60
2007,08,13,09,24,16.60
2007,08,13,09,25,16.70
2007,08,13,09,26,16.70
2007,08,13,09,27,16.80
2007,08,13,09,28,16.80
2007,08,13,09,29,16.80
2007,08,13,09,30,16.90
2007,08,13,09,31,16.90
2007,08,13,09,32,16.90
2007,08,13,09,33,17.00
2007,08,13,09,34,17.10
2007,08,13,09,35,17.10
2007,08,13,09,36,17.10
2007,08,13,09,37,17.20
2007,08,13,09,38,17.20
2007,08,13,09,39,17.20
2007,08,13,09,40,17.20
2007,08,13,09,41,17.20
2007,08,13,09,42,17.20
2007,08,13,09,43,17.20
2007,08,13,09,44,17.20
2007,08,13,09,45,17.20
2007,08,13,09,46,17.30
2007,08,13,09,47,17.30
2007,08,13,09,48,17.30
2007,08,13,09,49,17.30
2007,08,13,09,50,17.30
2007,08,13,09,51,17.40
2007,08,13,09,52,17.40
2007,08,13,09,53,17.40
2007,08,13,09,54,17.40
2007,08,13,09,55,17.40
2007,08,13,09,56,17.40
2007,08,13,09,57,17.40
2007,08,13,09,58,17.30
2007,08,13,09,59,17.30
2007,08,13,10,00,17.30
2007,08,13,10,01,17.30
2007,08,13,10,02,17.30
2007,08,13,10,03,17.30
2007,08,13,10,04,17.30
2007,08,13,10,05,17.30
2007,08,13,10,06,17.30
2007,08,13,10,07,17.30
2007,08,13,10,08,17.30
2007,08,13,10,09,17.30
2007,08,13,10,10,17.30
2007,08,13,10,11,17.40
2007,08,13,10,12,17.40
2007,08,13,10,13,17.40
2007,08,13,10,14,17.40
2007,08,13,10,15,17.40
2007,08,13,10,16,17.50
2007,08,13,10,17,17.50
2007,08,13,10,18,17.50
2007,08,13,10,19,17.60
2007,08,13,10,20,17.60
2007,08,13,10,21,17.60
2007,08,13,10,22,17.60
2007,08,13,10,23,17.60
2007,08,13,10,24,17.60
2007,08,13,10,25,17.60
2007,08,13,10,26,17.70
2007,08,13,10,27,17.70
2007,08,13,10,28,17.70
2007,08,13,10,29,17.70
2007,08,13,10,30,17.80
2007,08,13,10,31,17.80
2007,08,13,10,32,17.80
2007,08,13,10,33,17.90
2007,08,13,10,34,18.00
2007,08,13,10,35,18.00
2007,08,13,10,36,18.00
2007,08,13,10,37,18.00
2007,08,13,10,38,18.00
2007,08,13,10,39,18.10
2007,08,13,10,40,18.10
2007,08,13,10,41,18.20
2007,08,13,10,42,18.30
2007,08,13,10,43,18.30
2007,08,13,10,44,18.40
2007,08,13,10,45,18.40
2007,08,13,10,46,18.40
2007,08,13,10,47,18.40
2007,08,13,10,48,18.50
2007,08,13,10,49,18.60
2007,08,13,10,50,18.60
2007,08,13,10,51,18.60
2007,08,13,10,52,18.70
2007,08,13,10,53,18.70
2007,08,13,10,54,18.80
2007,08,13,10,55,18.90
2007,08,13,10,56,19.00
2007,08,13,10,57,19.00
2007,08,13,10,58,19.20
2007,08,13,10,59,19.40
2007,08,13,11,00,19.50
2007,08,13,11,01,19.60
2007,08,13,11,02,19.70
2007,08,13,11,03,19.60
2007,08,13,11,04,19.70
2007,08,13,11,05,19.70
2007,08,13,11,06,19.60
2007,08,13,11,07,19.60
2007,08,13,11,08,19.70
2007,08,13,11,09,19.70
2007,08,13,11,10,19.60
2007,08,13,11,11,19.60
2007,08,13,11,12,19.60
2007,08,13,11,13,19.50
2007,08,13,11,14,19.50
2007,08,13,11,15,19.60
2007,08,13,11,16,19.70
2007,08,13,11,17,19.70
2007,08,13,11,18,19.80
2007,08,13,11,19,19.80
2007,08,13,11,20,19.80
2007,08,13,11,21,19.80
2007,08,13,11,22,19.80
2007,08,13,11,23,19.80
2007,08,13,11,24,19.80
2007,08,13,11,25,19.80
2007,08,13,11,26,19.90
2007,08,13,11,27,19.90
2007,08,13,11,28,19.90
2007,08,13,11,29,20.00
2007,08,13,11,30,20.10
2007,08,13,11,31,20.20
2007,08,13,11,32,20.20
2007,08,13,11,33,20.20
2007,08,13,11,34,20.30
2007,08,13,11,35,20.40
2007,08,13,11,36,20.50
2007,08,13,11,37,20.50
2007,08,13,11,38,20.40
2007,08,13,11,39,20.20
2007,08,13,11,40,20.20
2007,08,13,11,41,20.20
2007,08,13,11,42,20.10
2007,08,13,11,43,20.10
2007,08,13,11,44,20.10
2007,08,13,11,45,20.10
2007,08,13,11,46,20.10
2007,08,13,11,47,20.00
2007,08,13,11,48,20.00
2007,08,13,11,49,20.10
2007,08,13,11,50,20.20
2007,08,13,11,51,20.30
2007,08,13,11,52,20.30
2007,08,13,11,53,20.40
2007,08,13,11,54,20.40
2007,08,13,11,55,20.50
2007,08,13,11,56,20.50
2007,08,13,11,57,20.50
2007,08,13,11,58,20.50
2007,08,13,11,59,20.50
2007,08,13,12,00,20.40
2007,08,13,12,01,20.30
2007,08,13,12,02,20.20
2007,08,13,12,03,20.20
2007,08,13,12,04,20.20
2007,08,13,12,05,20.30
2007,08,13,12,06,20.30
2007,08,13,12,07,20.30
2007,08,13,12,08,20.30
2007,08,13,12,09,20.10
2007,08,13,12,10,19.90
2007,08,13,12,11,19.50
2007,08,13,12,12,19.30
2007,08,13,12,13,19.30
2007,08,13,12,14,19.40
2007,08,13,12,15,19.40
2007,08,13,12,16,19.50
2007,08,13,12,17,19.50
2007,08,13,12,18,19.60
2007,08,13,12,19,19.50
2007,08,13,12,20,19.40
2007,08,13,12,21,19.30
2007,08,13,12,22,19.30
2007,08,13,12,23,19.10
2007,08,13,12,24,19.10
2007,08,13,12,25,19.00
2007,08,13,12,26,19.10
2007,08,13,12,27,19.20
2007,08,13,12,28,19.40
2007,08,13,12,29,19.50
2007,08,13,12,30,19.70
2007,08,13,12,31,19.90
2007,08,13,12,32,20.10
2007,08,13,12,33,20.30
2007,08,13,12,34,20.30
2007,08,13,12,35,20.40
2007,08,13,12,36,20.40
2007,08,13,12,37,20.40
2007,08,13,12,38,20.20
2007,08,13,12,39,20.00
2007,08,13,12,40,19.90
2007,08,13,12,41,19.90
2007,08,13,12,42,20.00
2007,08,13,12,43,20.10
2007,08,13,12,44,20.10
2007,08,13,12,45,20.10
2007,08,13,12,46,20.10
2007,08,13,12,47,20.10
2007,08,13,12,48,20.00
2007,08,13,12,49,20.00
2007,08,13,12,50,20.00
2007,08,13,12,51,19.90
2007,08,13,12,52,19.80
2007,08,13,12,53,19.80
2007,08,13,12,54,19.70
2007,08,13,12,55,19.70
2007,08,13,12,56,19.80
2007,08,13,12,57,19.90
2007,08,13,12,58,19.90
2007,08,13,12,59,19.90
2007,08,13,13,00,19.90
2007,08,13,13,01,19.80
2007,08,13,13,02,19.80
2007,08,13,13,03,19.70
2007,08,13,13,04,19.70
2007,08,13,13,05,19.70
2007,08,13,13,06,19.70
2007,08,13,13,07,19.60
2007,08,13,13,08,19.60
2007,08,13,13,09,19.60
2007,08,13,13,10,19.60
2007,08,13,13,11,19.60
2007,08,13,13,12,19.70
2007,08,13,13,13,19.80
2007,08,13,13,14,19.90
2007,08,13,13,15,19.90
2007,08,13,13,16,19.90
2007,08,13,13,17,19.80
2007,08,13,13,18,19.70
2007,08,13,13,19,19.60
2007,08,13,13,20,19.50
2007,08,13,13,21,19.60
2007,08,13,13,22,19.60
2007,08,13,13,23,19.60
2007,08,13,13,24,19.70
2007,08,13,13,25,19.70
2007,08,13,13,26,19.70
2007,08,13,13,27,19.70
2007,08,13,13,28,19.70
2007,08,13,13,29,19.60
2007,08,13,13,30,19.60
2007,08,13,13,31,19.70
2007,08,13,13,32,19.70
2007,08,13,13,33,19.70
2007,08,13,13,34,19.70
2007,08,13,13,35,19.80
2007,08,13,13,36,19.90
2007,08,13,13,37,19.90
2007,08,13,13,38,20.00
2007,08,13,13,39,20.10
2007,08,13,13,40,20.00
2007,08,13,13,41,20.00
2007,08,13,13,42,20.00
2007,08,13,13,43,19.90
2007,08,13,13,44,19.80
2007,08,13,13,45,19.80
2007,08,13,13,46,19.80
2007,08,13,13,47,19.90
2007,08,13,13,48,20.00
2007,08,13,13,49,20.10
2007,08,13,13,50,20.20
2007,08,13,13,51,20.20
2007,08,13,13,52,20.30
2007,08,13,13,53,20.30
2007,08,13,13,54,20.30
2007,08,13,13,55,20.30
2007,08,13,13,56,20.20
2007,08,13,13,57,20.20
2007,08,13,13,58,20.10
2007,08,13,13,59,20.10
2007,08,13,14,00,20.20
2007,08,13,14,01,20.20
2007,08,13,14,02,20.20
2007,08,13,14,03,20.20
2007,08,13,14,04,20.30
2007,08,13,14,05,20.30
2007,08,13,14,06,20.30
2007,08,13,14,07,20.20
2007,08,13,14,08,20.20
2007,08,13,14,09,20.10
2007,08,13,14,10,20.10
2007,08,13,14,11,20.20
2007,08,13,14,12,20.30
2007,08,13,14,13,20.20
2007,08,13,14,14,20.20
2007,08,13,14,15,20.30
2007,08,13,14,16,20.20
2007,08,13,14,17,20.10
2007,08,13,14,18,20.10
2007,08,13,14,19,20.10
2007,08,13,14,20,20.10
2007,08,13,14,21,20.00
2007,08,13,14,22,20.00
2007,08,13,14,23,20.00
2007,08,13,14,24,19.90
2007,08,13,14,25,20.00
2007,08,13,14,26,20.00
2007,08,13,14,27,20.10
2007,08,13,14,28,20.10
2007,08,13,14,29,20.20
2007,08,13,14,30,20.30
2007,08,13,14,31,20.30
2007,08,13,14,32,20.40
2007,08,13,14,33,20.50
2007,08,13,14,34,20.50
2007,08,13,14,35,20.60
2007,08,13,14,36,20.70
2007,08,13,14,37,20.70
2007,08,13,14,38,20.60
2007,08,13,14,39,20.60
2007,08,13,14,40,20.60
2007,08,13,14,41,20.60
2007,08,13,14,42,20.70
2007,08,13,14,43,20.70
2007,08,13,14,44,20.60
2007,08,13,14,45,20.60
2007,08,13,14,46,20.50
2007,08,13,14,47,20.50
2007,08,13,14,48,20.50
2007,08,13,14,49,20.50
2007,08,13,14,50,20.50
2007,08,13,14,51,20.60
2007,08,13,14,52,20.60
2007,08,13,14,53,20.70
2007,08,13,14,54,20.80
2007,08,13,14,55,20.80
2007,08,13,14,56,20.80
2007,08,13,14,57,20.90
2007,08,13,14,58,20.90
2007,08,13,14,59,20.80
2007,08,13,15,00,20.80
2007,08,13,15,01,20.70
2007,08,13,15,02,20.70
2007,08,13,15,03,20.60
2007,08,13,15,04,20.60
2007,08,13,15,05,20.50
2007,08,13,15,06,20.50
2007,08,13,15,07,20.50
2007,08,13,15,08,20.60
2007,08,13,15,09,20.50
2007,08,13,15,10,20.50
2007,08,13,15,11,20.50
2007,08,13,15,12,20.40
2007,08,13,15,13,20.50
2007,08,13,15,14,20.50
2007,08,13,15,15,20.60
2007,08,13,15,16,20.70
2007,08,13,15,17,20.80
2007,08,13,15,18,20.90
2007,08,13,15,19,21.00
2007,08,13,15,20,21.00
2007,08,13,15,21,20.90
2007,08,13,15,22,20.90
2007,08,13,15,23,20.90
2007,08,13,15,24,21.00
2007,08,13,15,25,21.10
2007,08,13,15,26,21.10
2007,08,13,15,27,21.10
2007,08,13,15,28,21.10
2007,08,13,15,29,21.20
2007,08,13,15,30,21.30
2007,08,13,15,31,21.30
2007,08,13,15,32,21.20
2007,08,13,15,33,21.20
2007,08,13,15,34,21.10
2007,08,13,15,35,21.10
2007,08,13,15,36,21.10
2007,08,13,15,37,21.10
2007,08,13,15,38,21.10
2007,08,13,15,39,21.20
2007,08,13,15,40,21.30
2007,08,13,15,41,21.20
2007,08,13,15,42,21.20
2007,08,13,15,43,21.30
2007,08,13,15,44,21.20
2007,08,13,15,45,21.20
2007,08,13,15,46,21.20
2007,08,13,15,47,21.20
2007,08,13,15,48,21.10
2007,08,13,15,49,21.10
2007,08,13,15,50,21.10
2007,08,13,15,51,21.20
2007,08,13,15,52,21.30
2007,08,13,15,53,21.30
2007,08,13,15,54,21.40
2007,08,13,15,55,21.40
2007,08,13,15,56,21.40
2007,08,13,15,57,21.30
2007,08,13,15,58,21.20
2007,08,13,15,59,21.20
2007,08,13,16,00,21.30
2007,08,13,16,01,21.30
2007,08,13,16,02,21.30
2007,08,13,16,03,21.40
2007,08,13,16,04,21.50
2007,08,13,16,05,21.60
2007,08,13,16,06,21.50
2007,08,13,16,07,21.40
2007,08,13,16,08,21.30
2007,08,13,16,09,21.30
2007,08,13,16,10,21.30
2007,08,13,16,11,21.30
2007,08,13,16,12,21.40
2007,08,13,16,13,21.40
2007,08,13,16,14,21.50
2007,08,13,16,15,21.50
2007,08,13,16,16,21.30
2007,08,13,16,17,21.30
2007,08,13,16,18,21.40
2007,08,13,16,19,21.40
2007,08,13,16,20,21.50
2007,08,13,16,21,21.60
2007,08,13,16,22,21.70
2007,08,13,16,23,21.70
2007,08,13,16,24,21.70
2007,08,13,16,25,21.70
2007,08,13,16,26,21.70
2007,08,13,16,27,21.80
2007,08,13,16,28,21.80
2007,08,13,16,29,21.80
2007,08,13,16,30,21.80
2007,08,13,16,31,21.80
2007,08,13,16,32,21.80
2007,08,13,16,33,21.80
2007,08,13,16,34,21.80
2007,08,13,16,35,21.70
2007,08,13,16,36,21.60
2007,08,13,16,37,21.60
2007,08,13,16,38,21.60
2007,08,13,16,39,21.60
2007,08,13,16,40,21.60
2007,08,13,16,41,21.60
2007,08,13,16,42,21.50
2007,08,13,16,43,21.50
2007,08,13,16,44,21.40
2007,08,13,16,45,21.40
2007,08,13,16,46,21.40
2007,08,13,16,47,21.50
2007,08,13,16,48,21.60
2007,08,13,16,49,21.60
2007,08,13,16,50,21.80
2007,08,13,16,51,21.80
2007,08,13,16,52,21.90
2007,08,13,16,53,22.00
2007,08,13,16,54,22.00
2007,08,13,16,55,22.00
2007,08,13,16,56,22.00
2007,08,13,16,57,21.90
2007,08,13,16,58,21.80
2007,08,13,16,59,21.70
2007,08,13,17,00,21.70
2007,08,13,17,01,21.60
2007,08,13,17,02,21.50
2007,08,13,17,03,21.50
2007,08,13,17,04,21.50
2007,08,13,17,05,21.40
2007,08,13,17,06,21.40
2007,08,13,17,07,21.30
2007,08,13,17,08,21.30
2007,08,13,17,09,21.30
2007,08,13,17,10,21.30
2007,08,13,17,11,21.20
2007,08,13,17,12,21.10
2007,08,13,17,13,21.10
2007,08,13,17,14,21.10
2007,08,13,17,15,21.10
2007,08,13,17,16,21.10
2007,08,13,17,17,21.20
2007,08,13,17,18,21.20
2007,08,13,17,19,21.20
2007,08,13,17,20,21.20
2007,08,13,17,21,21.20
2007,08,13,17,22,21.20
2007,08,13,17,23,21.30
2007,08,13,17,24,21.30
2007,08,13,17,25,21.30
2007,08,13,17,26,21.20
2007,08,13,17,27,21.20
2007,08,13,17,28,21.30
2007,08,13,17,29,21.30
2007,08,13,17,30,21.30
2007,08,13,17,31,21.30
2007,08,13,17,32,21.30
2007,08,13,17,33,21.30
2007,08,13,17,34,21.30
2007,08,13,17,35,21.30
2007,08,13,17,36,21.20
2007,08,13,17,37,21.20
2007,08,13,17,38,21.10
2007,08,13,17,39,21.10
2007,08,13,17,40,21.10
2007,08,13,17,41,21.00
2007,08,13,17,42,20.90
2007,08,13,17,43,20.80
2007,08,13,17,44,20.80
2007,08,13,17,45,20.80
2007,08,13,17,46,20.80
2007,08,13,17,47,20.90
2007,08,13,17,48,20.90
2007,08,13,17,49,20.90
2007,08,13,17,50,21.00
2007,08,13,17,51,21.10
2007,08,13,17,52,21.10
2007,08,13,17,53,21.20
2007,08,13,17,54,21.30
2007,08,13,17,55,21.30
2007,08,13,17,56,21.30
2007,08,13,17,57,21.30
2007,08,13,17,58,21.30
2007,08,13,17,59,21.20
2007,08,13,18,00,21.20
2007,08,13,18,01,21.20
2007,08,13,18,02,21.10
2007,08,13,18,03,21.20
2007,08,13,18,04,21.20
2007,08,13,18,05,21.20
2007,08,13,18,06,21.30
2007,08,13,18,07,21.30
2007,08,13,18,08,21.40
2007,08,13,18,09,21.40
2007,08,13,18,10,21.40
2007,08,13,18,11,21.30
2007,08,13,18,12,21.30
2007,08,13,18,13,21.30
2007,08,13,18,14,21.30
2007,08,13,18,15,21.30
2007,08,13,18,16,21.30
2007,08,13,18,17,21.30
2007,08,13,18,18,21.30
2007,08,13,18,19,21.30
2007,08,13,18,20,21.30
2007,08,13,18,21,21.30
2007,08,13,18,22,21.30
2007,08,13,18,23,21.30
2007,08,13,18,24,21.30
2007,08,13,18,25,21.20
2007,08,13,18,26,21.20
2007,08,13,18,27,21.20
2007,08,13,18,28,21.20
2007,08,13,18,29,21.10
2007,08,13,18,30,21.00
2007,08,13,18,31,20.90
2007,08,13,18,32,20.90
2007,08,13,18,33,20.90
2007,08,13,18,34,20.90
2007,08,13,18,35,20.90
2007,08,13,18,36,20.90
2007,08,13,18,37,20.80
2007,08,13,18,38,20.80
2007,08,13,18,39,20.90
2007,08,13,18,40,20.90
2007,08,13,18,41,21.00
2007,08,13,18,42,21.10
2007,08,13,18,43,21.20
2007,08,13,18,44,21.30
2007,08,13,18,45,21.30
2007,08,13,18,46,21.30
2007,08,13,18,47,21.30
2007,08,13,18,48,21.40
2007,08,13,18,49,21.50
2007,08,13,18,50,21.50
2007,08,13,18,51,21.50
2007,08,13,18,52,21.60
2007,08,13,18,53,21.60
2007,08,13,18,54,21.60
2007,08,13,18,55,21.60
2007,08,13,18,56,21.50
2007,08,13,18,57,21.50
2007,08,13,18,58,21.40
2007,08,13,18,59,21.40
2007,08,13,19,00,21.40
2007,08,13,19,01,21.40
2007,08,13,19,02,21.50
2007,08,13,19,03,21.50
2007,08,13,19,04,21.50
2007,08,13,19,05,21.50
2007,08,13,19,06,21.60
2007,08,13,19,07,21.60
2007,08,13,19,08,21.50
2007,08,13,19,09,21.50
2007,08,13,19,10,21.50
2007,08,13,19,11,21.50
2007,08,13,19,12,21.50
2007,08,13,19,13,21.40
2007,08,13,19,14,21.30
2007,08,13,19,15,21.30
2007,08,13,19,16,21.30
2007,08,13,19,17,21.30
2007,08,13,19,18,21.30
2007,08,13,19,19,21.30
2007,08,13,19,20,21.30
2007,08,13,19,21,21.30
2007,08,13,19,22,21.30
2007,08,13,19,23,21.30
2007,08,13,19,24,21.30
2007,08,13,19,25,21.20
2007,08,13,19,26,21.20
2007,08,13,19,27,21.20
2007,08,13,19,28,21.10
2007,08,13,19,29,21.10
2007,08,13,19,30,21.10
2007,08,13,19,31,21.00
2007,08,13,19,32,21.00
2007,08,13,19,33,20.90
2007,08,13,19,34,20.90
2007,08,13,19,35,20.90
2007,08,13,19,36,20.80
2007,08,13,19,37,20.80
2007,08,13,19,38,20.70
2007,08,13,19,39,20.70
2007,08,13,19,40,20.60
2007,08,13,19,41,20.60
2007,08,13,19,42,20.60
2007,08,13,19,43,20.60
2007,08,13,19,44,20.60
2007,08,13,19,45,20.60
2007,08,13,19,46,20.60
2007,08,13,19,47,20.60
2007,08,13,19,48,20.60
2007,08,13,19,49,20.60
2007,08,13,19,50,20.60
2007,08,13,19,51,20.60
2007,08,13,19,52,20.50
2007,08,13,19,53,20.50
2007,08,13,19,54,20.50
2007,08,13,19,55,20.50
2007,08,13,19,56,20.50
2007,08,13,19,57,20.40
2007,08,13,19,58,20.40
2007,08,13,19,59,20.40
2007,08,13,20,00,20.40
2007,08,13,20,01,20.40
2007,08,13,20,02,20.40
2007,08,13,20,03,20.40
2007,08,13,20,04,20.40
2007,08,13,20,05,20.30
2007,08,13,20,06,20.30
2007,08,13,20,07,20.20
2007,08,13,20,08,20.20
2007,08,13,20,09,20.10
2007,08,13,20,10,20.00
2007,08,13,20,11,19.90
2007,08,13,20,12,19.90
2007,08,13,20,13,19.80
2007,08,13,20,14,19.80
2007,08,13,20,15,19.80
2007,08,13,20,16,19.70
2007,08,13,20,17,19.70
2007,08,13,20,18,19.70
2007,08,13,20,19,19.70
2007,08,13,20,20,19.60
2007,08,13,20,21,19.60
2007,08,13,20,22,19.50
2007,08,13,20,23,19.40
2007,08,13,20,24,19.40
2007,08,13,20,25,19.30
2007,08,13,20,26,19.30
2007,08,13,20,27,19.20
2007,08,13,20,28,19.20
2007,08,13,20,29,19.10
2007,08,13,20,30,19.10
2007,08,13,20,31,19.10
2007,08,13,20,32,19.00
2007,08,13,20,33,18.90
2007,08,13,20,34,18.90
2007,08,13,20,35,18.80
2007,08,13,20,36,18.80
2007,08,13,20,37,18.70
2007,08,13,20,38,18.60
2007,08,13,20,39,18.60
2007,08,13,20,40,18.50
2007,08,13,20,41,18.50
2007,08,13,20,42,18.40
2007,08,13,20,43,18.40
2007,08,13,20,44,18.30
2007,08,13,20,45,18.30
2007,08,13,20,46,18.30
2007,08,13,20,47,18.20
2007,08,13,20,48,18.20
2007,08,13,20,49,18.20
2007,08,13,20,50,18.10
2007,08,13,20,51,18.10
2007,08,13,20,52,18.00
2007,08,13,20,53,18.00
2007,08,13,20,54,17.90
2007,08,13,20,55,17.90
2007,08,13,20,56,17.90
2007,08,13,20,57,17.80
2007,08,13,20,58,17.80
2007,08,13,20,59,17.80
2007,08,13,21,00,17.70
2007,08,13,21,01,17.70
2007,08,13,21,02,17.70
2007,08,13,21,03,17.70
2007,08,13,21,04,17.60
2007,08,13,21,05,17.60
2007,08,13,21,06,17.50
2007,08,13,21,07,17.50
2007,08,13,21,08,17.50
2007,08,13,21,09,17.40
2007,08,13,21,10,17.40
2007,08,13,21,11,17.40
2007,08,13,21,12,17.40
2007,08,13,21,13,17.40
2007,08,13,21,14,17.30
2007,08,13,21,15,17.30
2007,08,13,21,16,17.30
2007,08,13,21,17,17.30
2007,08,13,21,18,17.30
2007,08,13,21,19,17.30
2007,08,13,21,20,17.30
2007,08,13,21,21,17.20
2007,08,13,21,22,17.20
2007,08,13,21,23,17.20
2007,08,13,21,24,17.20
2007,08,13,21,25,17.20
2007,08,13,21,26,17.20
2007,08,13,21,27,17.10
2007,08,13,21,28,17.10
2007,08,13,21,29,17.10
2007,08,13,21,30,17.10
2007,08,13,21,31,17.00
2007,08,13,21,32,17.00
2007,08,13,21,33,17.00
2007,08,13,21,34,17.00
2007,08,13,21,35,16.90
2007,08,13,21,36,16.90
2007,08,13,21,37,16.90
2007,08,13,21,38,16.90
2007,08,13,21,39,16.90
2007,08,13,21,40,16.90
2007,08,13,21,41,16.90
2007,08,13,21,42,16.90
2007,08,13,21,43,16.90
2007,08,13,21,44,16.90
2007,08,13,21,45,16.90
2007,08,13,21,46,16.90